Frederick, OK

4:27 AM CDT on April 27, 2017 (GMT -0500)
Frederick Municipal

Weather History for KFDR - May, 2013

Change the Weather History Date:

Sunday, May 5, 2013

  Actual Average (KLTS) Record (KLTS)
Temperature  
Mean Temperature 56 °F -  
Max Temperature 69 °F 79 °F 104 °F (2012)
Min Temperature 43 °F 55 °F 41 °F (2013)
Degree Days  
Heating Degree Days 9    
Growing Degree Days 6 (Base 50)    
Moisture  
Dew Point 43 °F    
Average Humidity 67    
Maximum Humidity 86    
Minimum Humidity 42    
Precipitation  
Precipitation 0.00 in - - ()
Sea Level Pressure  
Sea Level Pressure 30.09 in    
Wind  
Wind Speed 6 mph (North)    
Max Wind Speed 10 mph    
Max Gust Speed 17 mph    
Visibility 10 miles    
Events      
Averages and records for this station are not official NWS values.
T = Trace of Precipitation, MM = Missing Value Source: NWS Daily Summary

Daily Weather History Graph

Daily Weather History Graph

Search for Another Location

Airport or City:

Trip Planner

Search our weather history database for the weather conditions in past years. The results will help you decide how hot, cold, wet, or windy it might be!

Date:

Astronomy

May. 05, 2013 Rise Set
Actual Time 6:41 AM CDT 8:23 PM CDT
Civil Twilight 6:14 AM CDT 8:50 PM CDT
Nautical Twilight 5:42 AM CDT 9:23 PM CDT
Astronomical Twilight 5:07 AM CDT 9:58 PM CDT
Moon 4:02 AM CDT (5/5) 4:34 PM CDT (5/5)
Length of Visible Light 14h 35m
Length of Day
13h 41m
Waning Crescent, 18% of the Moon is Illuminated
May 5
Waning Crescent
May 9
New
May 17
First Quarter
May 24
Full
May 31
Last Quarter

Hourly Weather History & Observations

Time (CDT) Temp. Windchill Dew Point Humidity Pressure Visibility Wind Dir Wind Speed Gust Speed Precip Events Conditions
12:53 AM 45.0 °F 42.6 °F 39.0 °F 80% 30.06 in 10.0 mi North 4.6 mph - N/A   Clear
1:53 AM 45.0 °F 41.8 °F 39.0 °F 80% 30.06 in 10.0 mi North 5.8 mph - N/A   Clear
2:53 AM 45.0 °F 41.2 °F 39.0 °F 80% 30.05 in 10.0 mi North 6.9 mph - N/A   Clear
3:53 AM 44.1 °F 40.8 °F 39.0 °F 82% 30.06 in 10.0 mi North 5.8 mph - N/A   Clear
4:53 AM 43.0 °F 39.5 °F 39.0 °F 86% 30.08 in 10.0 mi NNW 5.8 mph - N/A   Clear
5:53 AM 44.1 °F 42.5 °F 39.0 °F 82% 30.09 in 10.0 mi NW 3.5 mph - N/A   Mostly Cloudy
6:39 AM 46.4 °F 44.3 °F 39.2 °F 76% 30.13 in 10.0 mi NW 4.6 mph - N/A   Overcast
6:53 AM 46.9 °F - 39.9 °F 77% 30.11 in 10.0 mi NNW 4.6 mph - N/A   Overcast
7:53 AM 46.9 °F - 41.0 °F 80% 30.14 in 10.0 mi NW 4.6 mph - N/A   Overcast
8:53 AM 48.9 °F - 39.9 °F 71% 30.16 in 10.0 mi NNW 8.1 mph - N/A   Overcast
9:53 AM 51.1 °F - 41.0 °F 68% 30.17 in 10.0 mi NNE 9.2 mph - N/A   Overcast
10:53 AM 52.0 °F - 41.0 °F 66% 30.19 in 10.0 mi North 8.1 mph - N/A   Overcast
11:53 AM 54.0 °F - 42.1 °F 64% 30.19 in 10.0 mi North 6.9 mph - N/A   Overcast
1:53 PM 62.1 °F - 44.1 °F 52% 30.13 in 10.0 mi NNW 10.4 mph 16.1 mph N/A   Clear
2:53 PM 63.0 °F - 44.1 °F 50% 30.10 in 10.0 mi NE 6.9 mph - N/A   Clear
3:53 PM 66.0 °F - 46.0 °F 48% 30.07 in 10.0 mi NNE 8.1 mph - N/A   Clear
4:53 PM 69.1 °F - 45.0 °F 42% 30.05 in 10.0 mi North 10.4 mph 17.3 mph N/A   Clear
5:53 PM 69.1 °F - 46.0 °F 44% 30.04 in 10.0 mi North 8.1 mph - N/A   Clear
6:53 PM 68.0 °F - 46.0 °F 45% 30.04 in 10.0 mi North 5.8 mph - N/A   Clear
7:53 PM 64.0 °F - 46.9 °F 54% 30.03 in 10.0 mi NE 4.6 mph - N/A   Clear
8:53 PM 61.0 °F - 46.9 °F 60% 30.03 in 10.0 mi NE 8.1 mph - N/A   Clear
9:53 PM 57.0 °F - 46.9 °F 69% 30.05 in 10.0 mi East 6.9 mph - N/A   Clear
10:53 PM 54.0 °F - 46.0 °F 75% 30.06 in 10.0 mi East 8.1 mph - N/A   Clear
11:53 PM 52.0 °F - 46.0 °F 80% 30.07 in 10.0 mi East 6.9 mph - N/A   Clear